Zurück zum Katalog

INTELSAT 506

AktivKommunikationGEO
NORAD 14077·PAYLOAD· XX

Gestartet May 19, 1983 von Cape Canaveral Space Force Station

Loading…

TLE

AktuellSource: Space-Track

Epoche: Sep 14, 2026, 05:40 UTC

1 14077U 83047A   26257.23638230  .00000011  00000-0  00000-0 0  9992
2 14077  12.3626 333.0380 0037092 353.4867   5.1955  0.99157448124962

Verfolge INTELSAT 506 in Echtzeit mit AllMySat

Download on the App Store